"Pseudo-MPEC" for P10OVOF

Created 2019 Jun 15 19:08:59 UT using Find_Orb

Click here for an explanation of pseudo-MPECs

 
 Astrometry: 
     P10OVOF  C2019 05 30%K(K2?4M6.cPxPhmiL.qER`d8=Mayf''k:%A7g*An)q\P`c9W.kqF52
     P10OVOF  C2019 05 30M)5jkyVr[!f['-rnl9u0y%Jb\J/Astrometry-wmBRredacted;7F52
     P10OVOF  C2019 06 02g+H`fIHP4@y4;UDnZI0S_[l2/id!VpIp\rw^#e%E9q7f4:vAS1^FF51
     P10OVOF  C2019 06 02DGclicki.HE$qp;jGym2XI1K@1=,y1]AenYe8TGOhereS%F#tjJNF51
     P10OVOF  C2019 06 0276``Gf'2)gfnJ-Y?fxWFRXu`8vc2fh:X$!gy8Jg$7eR0+PBR]Mw8F51
     P10OVOF  C2019 06 07#:%D(?at@ga@Yea8^xWjcct+oW+B.xIWD+vFlKf32`GRG96pc3H(F51
     P10OVOF  C2019 06 072-%@+%CIOmIuicPP0\Q#r+sxn-Sp5e$n_cs)v2sEa75JA?4$J7vVF51
     P10OVOF  C2019 06 07eO$L(uaGy0`b)iBZU;%=RnAtg0xlGNHfW89!T`TdGqGj9'FUa=aUF51
     P10OVOF  C2019 06 078[wH3iJk6sq)3M]M'!tRH?lP?!76bFNxCforwef!'WkU)thVWo7XF51
     P10OVOF  C2019 06 10Dj'c\1(]HryHFwlwc2xDDjyMdA]v7t.[dixZ7R7KxhqvQ)Nv'OT]F51
     P10OVOF  C2019 06 10qkY.fgC*WA_W!P4Sexplanationg_+0V[a907ANgO1^ADFa2iECdF51
     P10OVOF  C2019 06 10^Te5hrVMWf]9(QI?rw`!cDv-D7sg]QAKp09BgASX95/bU[9;7V:3F51

Station data:
(F51) Pan-STARRS 1, Haleakala  (N20.707235 W156.255910)  US/Hawaii.
   Observers N. Primak, A. Schultz, S. Watters, J. Thiel, T. Goggia. Measurer
   PS1 Science Consortium. 1.8-m Ritchey-Chrétien + CCD.
(F52) Pan-STARRS 2, Haleakala  (N20.707384 W156.255910)  US/Hawaii. 1.8-m
   Ritchey-Chrétien + CCD.

Orbital elements:  P10OVOF
   Perihelion 2019 Jun 30.892124 +/- 1.06 TT = 21:24:39 (JD 2458665.392124)
Epoch 2019 Jun 10.0 TT = JDT 2458644.5   Earth MOID: 0.5499   AutoNEOCP
M 354.67160903 +/- 0.32             (J2000 ecliptic)
n   0.25504304 +/- 0.00286          Peri.   67.24475 +/- 1.0
a   2.46259914 +/- 0.0184           Node   200.40582 +/- 0.35
e   0.3887544 +/- 0.00205           Incl.   13.05172 +/- 0.15
P   3.86                   H 22.0   G  0.15   U  8.8  
q 1.50525288 +/- 0.00637    Q 3.41994541 +/- 0.0313
From 12 observations 2019 May 30-June 10; mean residual 0".10
Residuals in arcseconds: 
190530 F52  .00   .04-    190602 F51  .04+  .03-    190607 F51  .15-  .12-    
190530 F52  .07+  .08+    190607 F51  .18-  .01+    190610 F51  .00   .14+    
190602 F51  .17-  .12-    190607 F51  .14+  .02-    190610 F51  .02-  .03-    
190602 F51  .04+  .08+    190607 F51  .12+  .24+    190610 F51  .08+  .06-    

Ephemerides (geocentric):
Date (UTC) HH   RA              Dec         delta   r     elong  mag " sig PA
---- -- -- --  -------------   -----------  ------ ------ -----  --- ---- ---
2019 06 15 19  16 28 40.602   +09 12 07.03  .56745 1.5110 143.7 22.8 2.29 138
2019 06 15 20  16 28 40.517   +09 12 25.08  .56752 1.5110 143.7 22.8 2.32 138
2019 06 15 21  16 28 40.435   +09 12 43.05  .56759 1.5110 143.7 22.8 2.36 138
2019 06 15 22  16 28 40.355   +09 13 00.95  .56765 1.5109 143.7 22.8 2.39 138
2019 06 15 23  16 28 40.277   +09 13 18.78  .56772 1.5109 143.6 22.8 2.43 139
2019 06 16 00  16 28 40.201   +09 13 36.54  .56779 1.5109 143.6 22.8 2.46 139
2019 06 16 01  16 28 40.127   +09 13 54.23  .56786 1.5108 143.6 22.8 2.50 139
2019 06 16 02  16 28 40.056   +09 14 11.85  .56793 1.5108 143.6 22.8 2.53 139
2019 06 16 03  16 28 39.987   +09 14 29.40  .56800 1.5108 143.5 22.8 2.57 139
2019 06 16 04  16 28 39.921   +09 14 46.88  .56807 1.5107 143.5 22.8 2.61 139
2019 06 16 05  16 28 39.856   +09 15 04.29  .56814 1.5107 143.5 22.8 2.64 139
2019 06 16 06  16 28 39.794   +09 15 21.62  .56822 1.5107 143.5 22.8 2.68 139
2019 06 16 07  16 28 39.734   +09 15 38.89  .56829 1.5106 143.4 22.8 2.72 139
2019 06 16 08  16 28 39.677   +09 15 56.08  .56836 1.5106 143.4 22.8 2.76 139
2019 06 16 09  16 28 39.621   +09 16 13.21  .56843 1.5106 143.4 22.8 2.80 139
2019 06 16 10  16 28 39.568   +09 16 30.26  .56850 1.5106 143.4 22.8 2.83 139
2019 06 16 11  16 28 39.518   +09 16 47.24  .56857 1.5105 143.3 22.8 2.87 139
2019 06 16 12  16 28 39.469   +09 17 04.15  .56864 1.5105 143.3 22.8 2.91 139
2019 06 16 13  16 28 39.423   +09 17 20.99  .56872 1.5105 143.3 22.8 2.95 139
2019 06 16 14  16 28 39.379   +09 17 37.76  .56879 1.5104 143.3 22.8 2.99 139
2019 06 16 15  16 28 39.338   +09 17 54.46  .56886 1.5104 143.2 22.8 3.03 139
2019 06 16 16  16 28 39.299   +09 18 11.09  .56893 1.5104 143.2 22.8 3.07 139
2019 06 16 17  16 28 39.262   +09 18 27.65  .56901 1.5103 143.2 22.8 3.11 139
2019 06 16 18  16 28 39.228   +09 18 44.14  .56908 1.5103 143.2 22.8 3.15 139
2019 06 16 19  16 28 39.195   +09 19 00.56  .56915 1.5103 143.1 22.8 3.20 139
2019 06 16 20  16 28 39.166   +09 19 16.90  .56923 1.5103 143.1 22.8 3.24 139
2019 06 16 21  16 28 39.138   +09 19 33.18  .56930 1.5102 143.1 22.8 3.28 140
2019 06 16 22  16 28 39.113   +09 19 49.38  .56937 1.5102 143.1 22.8 3.32 140
2019 06 16 23  16 28 39.090   +09 20 05.52  .56945 1.5102 143.0 22.8 3.36 140
2019 06 17 00  16 28 39.070   +09 20 21.58  .56952 1.5101 143.0 22.8 3.41 140
2019 06 17 01  16 28 39.052   +09 20 37.58  .56960 1.5101 143.0 22.8 3.45 140
2019 06 17 02  16 28 39.036   +09 20 53.50  .56967 1.5101 143.0 22.8 3.49 140
2019 06 17 03  16 28 39.023   +09 21 09.35  .56975 1.5101 142.9 22.8 3.54 140
2019 06 17 04  16 28 39.012   +09 21 25.14  .56982 1.5100 142.9 22.8 3.58 140
2019 06 17 05  16 28 39.003   +09 21 40.85  .56990 1.5100 142.9 22.8 3.63 140
2019 06 17 06  16 28 38.997   +09 21 56.49  .56997 1.5100 142.9 22.8 3.67 140
2019 06 17 07  16 28 38.993   +09 22 12.06  .57005 1.5099 142.8 22.8 3.72 140
2019 06 17 08  16 28 38.991   +09 22 27.56  .57012 1.5099 142.8 22.8 3.76 140
2019 06 17 09  16 28 38.992   +09 22 42.99  .57020 1.5099 142.8 22.8 3.81 140
2019 06 17 10  16 28 38.995   +09 22 58.35  .57027 1.5099 142.8 22.8 3.85 140
2019 06 17 11  16 28 39.001   +09 23 13.64  .57035 1.5098 142.7 22.8 3.90 140
2019 06 17 12  16 28 39.009   +09 23 28.86  .57043 1.5098 142.7 22.8 3.95 140
2019 06 17 13  16 28 39.020   +09 23 44.01  .57050 1.5098 142.7 22.8 4.00 140
2019 06 17 14  16 28 39.033   +09 23 59.08  .57058 1.5097 142.7 22.8 4.04 140
2019 06 17 15  16 28 39.048   +09 24 14.09  .57066 1.5097 142.6 22.8 4.09 140
2019 06 17 16  16 28 39.066   +09 24 29.03  .57074 1.5097 142.6 22.8 4.14 140
2019 06 17 17  16 28 39.086   +09 24 43.90  .57081 1.5097 142.6 22.8 4.19 140
2019 06 17 18  16 28 39.108   +09 24 58.69  .57089 1.5096 142.6 22.8 4.24 140